^^

..:: Storico WU ::..




Lo storico viene creato da WUnderground con i dati che la stazione Meteomincio invia al loro server. L' aggiornamento viene fatto ogni 5 minuti circa, tuttavia possono esserci intervalli pił ampi a causa di errori, interruzioni di servizio o problemi nell' invio tramite FTP.


Storico stazione MeteoMincio
Giorno Sommario per Settembre 29, 2022 Unità:  Inglese    Metrico   Entrambi
Giorno Settimana Mese Anno
  Max: Min: Media:
Temperatura: 75.2 °F 51.8 °F 62.1 °F
Dew Point: 62.6 °F 50 °F 54.7 °F
Umidità: 93% 46% 79%
Velocità vento: 14.9mph 0mph 4.2mph
Raffica: 23mph - -
Direzione- - ESE
Pressione: 29.6 in 29.4 in -
Precipitazioni: 0 in    
 
 
Tabulato Dati per Settembre 29, 2022
Ora Temperatura Dew Point Pressione Direzione Velocità vento Raffica Umidità Intensità pioggia (oraria) Info solare Situazione
00:04 57.2 °F 51.8 °F 29.5 in NE 1.2 mph 1.9 mph 85% 0 in 0.00 W/m2 unknown
00:09 57.2 °F 51.8 °F 29.5 in Calm   1.2 mph 85% 0 in 0.00 W/m2 unknown
00:14 57.2 °F 51.8 °F 29.5 in NE 0.6 mph 1.2 mph 86% 0 in 0.00 W/m2 unknown
00:19 57.2 °F 51.8 °F 29.5 in Calm   1.2 mph 86% 0 in 0.00 W/m2 unknown
00:24 55.4 °F 51.8 °F 29.5 in Calm     86% 0 in 0.00 W/m2 unknown
00:29 55.4 °F 51.8 °F 29.5 in NE 1.2 mph 2.5 mph 86% 0 in 0.00 W/m2 unknown
00:34 55.4 °F 51.8 °F 29.5 in NE 1.9 mph 2.5 mph 87% 0 in 0.00 W/m2 unknown
00:39 55.4 °F 51.8 °F 29.5 in NE 1.9 mph 2.5 mph 87% 0 in 0.00 W/m2 unknown
00:44 55.4 °F 51.8 °F 29.5 in NE 1.2 mph 1.9 mph 87% 0 in 0.00 W/m2 unknown
00:49 55.4 °F 51.8 °F 29.5 in NNE 0.6 mph 1.2 mph 87% 0 in 0.00 W/m2 unknown
00:54 55.4 °F 51.8 °F 29.5 in NNE 0.6 mph 1.9 mph 87% 0 in 0.00 W/m2 unknown
00:59 55.4 °F 51.8 °F 29.5 in Calm   1.2 mph 87% 0 in 0.00 W/m2 unknown
01:04 55.4 °F 51.8 °F 29.5 in Calm   1.2 mph 87% 0 in 0.00 W/m2 unknown
01:09 55.4 °F 51.8 °F 29.5 in Calm     87% 0 in 0.00 W/m2 unknown
01:14 55.4 °F 51.8 °F 29.5 in Calm     88% 0 in 0.00 W/m2 unknown
01:19 53.6 °F 50 °F 29.5 in West 0.6 mph 3.1 mph 88% 0 in 0.00 W/m2 unknown
01:24 53.6 °F 50 °F 29.5 in West 1.9 mph 3.7 mph 89% 0 in 0.00 W/m2 unknown
01:29 53.6 °F 50 °F 29.5 in West 1.2 mph 3.1 mph 89% 0 in 0.00 W/m2 unknown
01:34 53.6 °F 50 °F 29.5 in West 1.2 mph 2.5 mph 89% 0 in 0.00 W/m2 unknown
01:39 53.6 °F 50 °F 29.5 in West 1.2 mph 2.5 mph 89% 0 in 0.00 W/m2 unknown
01:44 53.6 °F 50 °F 29.5 in West 1.2 mph 2.5 mph 89% 0 in 0.00 W/m2 unknown
01:49 53.6 °F 51.8 °F 29.5 in Calm   1.2 mph 89% 0 in 0.00 W/m2 unknown
01:54 53.6 °F 51.8 °F 29.5 in Calm     89% 0 in 0.00 W/m2 unknown
01:59 53.6 °F 51.8 °F 29.5 in Calm     89% 0 in 0.00 W/m2 unknown
02:04 53.6 °F 51.8 °F 29.5 in Calm     89% 0 in 0.00 W/m2 unknown
02:09 53.6 °F 50 °F 29.5 in West 0.6 mph 1.9 mph 89% 0 in 0.00 W/m2 unknown
02:14 53.6 °F 50 °F 29.5 in West 1.2 mph 2.5 mph 89% 0 in 0.00 W/m2 unknown
02:19 53.6 °F 50 °F 29.5 in West 1.2 mph 2.5 mph 89% 0 in 0.00 W/m2 unknown
02:24 53.6 °F 50 °F 29.5 in West 1.2 mph 2.5 mph 90% 0 in 0.00 W/m2 unknown
02:29 53.6 °F 50 °F 29.5 in West 1.2 mph 1.9 mph 90% 0 in 0.00 W/m2 unknown
02:34 53.6 °F 50 °F 29.5 in WSW 0.6 mph 2.5 mph 90% 0 in 0.00 W/m2 unknown
02:39 53.6 °F 50 °F 29.5 in WSW 1.9 mph 2.5 mph 89% 0 in 0.00 W/m2 unknown
02:44 53.6 °F 50 °F 29.5 in West 1.9 mph 2.5 mph 90% 0 in 0.00 W/m2 unknown
02:49 53.6 °F 51.8 °F 29.5 in WNW 1.9 mph 2.5 mph 90% 0 in 0.00 W/m2 unknown
02:54 53.6 °F 50 °F 29.5 in WNW 1.2 mph 2.5 mph 90% 0 in 0.00 W/m2 unknown
02:59 53.6 °F 50 °F 29.5 in NW 1.2 mph 2.5 mph 89% 0 in 0.00 W/m2 unknown
03:04 53.6 °F 51.8 °F 29.5 in NW 0.6 mph 2.5 mph 92% 0 in 0.00 W/m2 unknown
03:09 53.6 °F 51.8 °F 29.5 in NW 1.2 mph 1.2 mph 90% 0 in 0.00 W/m2 unknown
03:14 53.6 °F 51.8 °F 29.5 in Calm   1.2 mph 92% 0 in 0.00 W/m2 unknown
03:19 53.6 °F 51.8 °F 29.5 in Calm   1.2 mph 92% 0 in 0.00 W/m2 unknown
03:24 53.6 °F 51.8 °F 29.5 in Calm     91% 0 in 0.00 W/m2 unknown
03:29 53.6 °F 51.8 °F 29.5 in Calm     92% 0 in 0.00 W/m2 unknown
03:34 53.6 °F 51.8 °F 29.5 in Calm   1.2 mph 90% 0 in 0.00 W/m2 unknown
03:39 53.6 °F 50 °F 29.5 in Calm   1.2 mph 90% 0 in 0.00 W/m2 unknown
03:44 53.6 °F 50 °F 29.5 in SSW 0.6 mph 1.2 mph 90% 0 in 0.00 W/m2 unknown
03:49 53.6 °F 50 °F 29.5 in SSW 0.6 mph 1.2 mph 90% 0 in 0.00 W/m2 unknown
03:54 53.6 °F 50 °F 29.5 in Calm   1.2 mph 91% 0 in 0.00 W/m2 unknown
03:59 53.6 °F 50 °F 29.5 in Calm     90% 0 in 0.00 W/m2 unknown
04:04 53.6 °F 50 °F 29.5 in Calm     90% 0 in 0.00 W/m2 unknown
04:08 53.6 °F 50 °F 29.5 in Calm     90% 0 in 0.00 W/m2 unknown
04:14 53.6 °F 50 °F 29.5 in Calm     90% 0 in 0.00 W/m2 unknown
04:16 53.6 °F 50 °F 29.5 in Calm     90% 0 in 0.00 W/m2 unknown
04:24 53.6 °F 50 °F 29.5 in Calm     90% 0 in 0.00 W/m2 unknown
04:28 53.6 °F 50 °F 29.5 in Calm     91% 0 in 0.00 W/m2 unknown
04:33 53.6 °F 50 °F 29.5 in Calm     91% 0 in 0.00 W/m2 unknown
04:38 53.6 °F 50 °F 29.5 in Calm     91% 0 in 0.00 W/m2 unknown
04:43 53.6 °F 50 °F 29.5 in Calm     91% 0 in 0.00 W/m2 unknown
04:49 51.8 °F 50 °F 29.5 in SSE 0.6 mph 2.5 mph 91% 0 in 0.00 W/m2 unknown
04:53 51.8 °F 50 °F 29.5 in SSE 1.2 mph 2.5 mph 91% 0 in 0.00 W/m2 unknown
04:58 51.8 °F 50 °F 29.5 in SSE 1.2 mph 2.5 mph 91% 0 in 0.00 W/m2 unknown
05:03 51.8 °F 50 °F 29.5 in SE 1.2 mph 2.5 mph 92% 0 in 0.00 W/m2 unknown
05:09 51.8 °F 50 °F 29.5 in SSE 1.2 mph   92% 0 in 0.00 W/m2 unknown
05:14 51.8 °F 50 °F 29.5 in Calm   1.2 mph 92% 0 in 0.00 W/m2 unknown
05:19 51.8 °F 50 °F 29.5 in East 0.6 mph 2.5 mph 92% 0 in 0.00 W/m2 unknown
05:24 51.8 °F 50 °F 29.5 in East 1.9 mph 3.7 mph 92% 0 in 0.00 W/m2 unknown
05:29 51.8 °F 50 °F 29.5 in ENE 1.9 mph 3.7 mph 92% 0 in 0.00 W/m2 unknown
05:34 51.8 °F 50 °F 29.5 in NE 1.9 mph 3.7 mph 93% 0 in 0.00 W/m2 unknown
05:39 51.8 °F 50 °F 29.5 in NNE 1.2 mph 2.5 mph 93% 0 in 0.00 W/m2 unknown
05:44 53.6 °F 50 °F 29.5 in NE 1.2 mph 2.5 mph 93% 0 in 0.00 W/m2 unknown
05:49 53.6 °F 50 °F 29.5 in Calm   1.9 mph 93% 0 in 0.00 W/m2 unknown
05:54 53.6 °F 50 °F 29.5 in Calm     92% 0 in 0.00 W/m2 unknown
05:59 53.6 °F 50 °F 29.5 in Calm     92% 0 in 0.00 W/m2 unknown
06:04 53.6 °F 50 °F 29.5 in Calm     92% 0 in 0.00 W/m2 unknown
06:09 53.6 °F 50 °F 29.5 in Calm   1.9 mph 92% 0 in 0.00 W/m2 unknown
06:14 53.6 °F 51.8 °F 29.5 in Calm   1.9 mph 93% 0 in 0.00 W/m2 unknown
06:19 53.6 °F 51.8 °F 29.5 in NE 0.6 mph 1.2 mph 93% 0 in 0.00 W/m2 unknown
06:24 53.6 °F 51.8 °F 29.5 in NE 0.6 mph 1.2 mph 93% 0 in 0.00 W/m2 unknown
06:29 53.6 °F 51.8 °F 29.5 in NE 0.6 mph 1.2 mph 93% 0 in 0.00 W/m2 unknown
06:34 53.6 °F 51.8 °F 29.5 in East 1.2 mph 2.5 mph 93% 0 in 0.00 W/m2 unknown
06:39 53.6 °F 51.8 °F 29.5 in SE 1.2 mph 2.5 mph 92% 0 in 0.00 W/m2 unknown
06:44 53.6 °F 51.8 °F 29.5 in SE 1.2 mph 2.5 mph 92% 0 in 0.00 W/m2 unknown
06:49 53.6 °F 51.8 °F 29.5 in Calm   1.9 mph 92% 0 in 0.00 W/m2 unknown
06:54 53.6 °F 51.8 °F 29.5 in Calm     92% 0 in 0.00 W/m2 unknown
06:59 53.6 °F 51.8 °F 29.5 in Calm     92% 0 in 0.00 W/m2 unknown
07:04 53.6 °F 51.8 °F 29.5 in Calm     93% 0 in 0.00 W/m2 unknown
07:09 55.4 °F 51.8 °F 29.5 in Calm     93% 0 in 0.00 W/m2 unknown
07:14 55.4 °F 51.8 °F 29.5 in Calm   1.2 mph 92% 0 in 0.00 W/m2 unknown
07:17 55.4 °F 51.8 °F 29.5 in Calm   1.2 mph 92% 0 in 0.00 W/m2 unknown
07:24 55.4 °F 51.8 °F 29.5 in Calm   1.2 mph 92% 0 in 5.00 W/m2 unknown
07:29 55.4 °F 51.8 °F 29.5 in NE 0.6 mph 2.5 mph 92% 0 in 7.00 W/m2 unknown
07:34 55.4 °F 51.8 °F 29.5 in NE 0.6 mph 2.5 mph 92% 0 in 12.00 W/m2 unknown
07:39 55.4 °F 51.8 °F 29.5 in Calm   1.9 mph 92% 0 in 30.00 W/m2 unknown
07:44 55.4 °F 51.8 °F 29.5 in NE 0.6 mph 2.5 mph 92% 0 in 28.00 W/m2 unknown
07:49 55.4 °F 53.6 °F 29.5 in ENE 1.2 mph 3.7 mph 92% 0 in 30.00 W/m2 unknown
07:54 55.4 °F 53.6 °F 29.5 in ENE 1.2 mph 3.7 mph 92% 0 in 44.00 W/m2 unknown
07:59 55.4 °F 53.6 °F 29.5 in ENE 1.2 mph 2.5 mph 92% 0 in 58.00 W/m2 unknown
08:04 55.4 °F 53.6 °F 29.5 in NNE 1.2 mph 3.1 mph 91% 0 in 62.00 W/m2 unknown
08:09 57.2 °F 53.6 °F 29.5 in ENE 1.9 mph 3.7 mph 91% 0 in 76.00 W/m2 unknown
08:14 57.2 °F 53.6 °F 29.5 in NE 2.5 mph 3.7 mph 91% 0 in 132.00 W/m2 unknown
08:19 57.2 °F 53.6 °F 29.5 in NNE 2.5 mph 3.7 mph 90% 0 in 132.00 W/m2 unknown
08:24 57.2 °F 53.6 °F 29.5 in NE 3.1 mph 3.7 mph 89% 0 in 141.00 W/m2 unknown
08:29 57.2 °F 53.6 °F 29.5 in NE 3.1 mph 3.7 mph 89% 0 in 141.00 W/m2 unknown
08:34 57.2 °F 53.6 °F 29.5 in NE 3.1 mph 3.7 mph 88% 0 in 114.00 W/m2 unknown
08:39 57.2 °F 55.4 °F 29.5 in NE 1.9 mph 3.7 mph 88% 0 in 114.00 W/m2 unknown
08:44 59 °F 55.4 °F 29.5 in NE 1.9 mph 3.7 mph 88% 0 in 113.00 W/m2 unknown
08:49 59 °F 55.4 °F 29.5 in ENE 2.5 mph 3.7 mph 88% 0 in 84.00 W/m2 unknown
08:54 57.2 °F 53.6 °F 29.5 in ENE 2.5 mph 3.7 mph 88% 0 in 84.00 W/m2 unknown
08:59 57.2 °F 53.6 °F 29.5 in NE 2.5 mph 3.7 mph 88% 0 in 100.00 W/m2 unknown
09:04 59 °F 55.4 °F 29.5 in NE 3.1 mph 5 mph 88% 0 in 113.00 W/m2 unknown
09:09 59 °F 55.4 °F 29.5 in NNE 3.1 mph 5 mph 88% 0 in 139.00 W/m2 unknown
09:14 59 °F 55.4 °F 29.5 in NE 2.5 mph 5 mph 88% 0 in 185.00 W/m2 unknown
09:19 59 °F 55.4 °F 29.5 in NE 2.5 mph 3.7 mph 88% 0 in 128.00 W/m2 unknown
09:24 59 °F 55.4 °F 29.5 in ENE 2.5 mph 3.7 mph 88% 0 in 127.00 W/m2 unknown
09:29 59 °F 55.4 °F 29.5 in NE 2.5 mph 3.7 mph 88% 0 in 134.00 W/m2 unknown
09:34 59 °F 55.4 °F 29.5 in NE 2.5 mph 3.7 mph 88% 0 in 142.00 W/m2 unknown
09:39 59 °F 55.4 °F 29.5 in NE 2.5 mph 3.7 mph 87% 0 in 165.00 W/m2 unknown
09:44 60.8 °F 57.2 °F 29.5 in NE 3.7 mph 5 mph 87% 0 in 258.00 W/m2 unknown
09:49 60.8 °F 57.2 °F 29.5 in NE 6.8 mph 9.3 mph 87% 0 in 457.00 W/m2 unknown
09:54 62.6 °F 57.2 °F 29.5 in NE 6.2 mph 8.1 mph 86% 0 in 482.00 W/m2 unknown
09:59 62.6 °F 57.2 °F 29.5 in NE 6.8 mph 10.6 mph 85% 0 in 519.00 W/m2 unknown
10:04 62.6 °F 57.2 °F 29.5 in ENE 6.8 mph 10.6 mph 83% 0 in 519.00 W/m2 unknown
10:09 62.6 °F 57.2 °F 29.5 in ENE 6.8 mph 9.3 mph 82% 0 in 193.00 W/m2 unknown
10:14 62.6 °F 57.2 °F 29.5 in ENE 6.2 mph 9.3 mph 83% 0 in 209.00 W/m2 unknown
10:19 62.6 °F 57.2 °F 29.5 in ENE 6.2 mph 8.7 mph 83% 0 in 209.00 W/m2 unknown
10:24 62.6 °F 57.2 °F 29.5 in ENE 5 mph 6.8 mph 83% 0 in 325.00 W/m2 unknown
10:29 64.4 °F 57.2 °F 29.5 in ENE 6.2 mph 8.1 mph 83% 0 in 325.00 W/m2 unknown
10:34 64.4 °F 59 °F 29.5 in NE 6.2 mph 8.1 mph 82% 0 in 587.00 W/m2 unknown
10:39 64.4 °F 59 °F 29.5 in ENE 6.2 mph 9.3 mph 80% 0 in 487.00 W/m2 unknown
10:44 64.4 °F 57.2 °F 29.5 in ENE 9.9 mph 13 mph 78% 0 in 464.00 W/m2 unknown
10:49 64.4 °F 57.2 °F 29.5 in ENE 9.9 mph 13 mph 79% 0 in 367.00 W/m2 unknown
10:54 64.4 °F 59 °F 29.5 in ENE 8.7 mph 13 mph 80% 0 in 577.00 W/m2 unknown
10:59 66.2 °F 59 °F 29.5 in NE 6.8 mph 11.8 mph 80% 0 in 577.00 W/m2 unknown
11:04 66.2 °F 59 °F 29.5 in NE 8.7 mph 11.8 mph 78% 0 in 492.00 W/m2 unknown
11:09 66.2 °F 59 °F 29.5 in ENE 8.7 mph 11.8 mph 78% 0 in 534.00 W/m2 unknown
11:14 66.2 °F 59 °F 29.5 in ENE 8.1 mph 11.8 mph 77% 0 in 526.00 W/m2 unknown
11:19 68 °F 59 °F 29.5 in ENE 6.2 mph 11.8 mph 77% 0 in 559.00 W/m2 unknown
11:24 68 °F 59 °F 29.5 in ENE 7.5 mph 10.6 mph 76% 0 in 608.00 W/m2 unknown
11:29 68 °F 59 °F 29.5 in ENE 7.5 mph 9.9 mph 76% 0 in 580.00 W/m2 unknown
11:34 68 °F 59 °F 29.5 in ENE 7.5 mph 13 mph 76% 0 in 584.00 W/m2 unknown
11:39 68 °F 60.8 °F 29.5 in ENE 7.5 mph 12.4 mph 76% 0 in 601.00 W/m2 unknown
11:44 68 °F 60.8 °F 29.5 in East 6.2 mph 13 mph 76% 0 in 601.00 W/m2 unknown
11:49 69.8 °F 60.8 °F 29.5 in ENE 7.5 mph 11.8 mph 75% 0 in 606.00 W/m2 unknown
11:54 69.8 °F 60.8 °F 29.5 in ENE 8.7 mph 11.8 mph 74% 0 in 606.00 W/m2 unknown
11:59 69.8 °F 60.8 °F 29.5 in East 8.7 mph 11.8 mph 74% 0 in 615.00 W/m2 unknown
12:04 69.8 °F 60.8 °F 29.5 in ENE 8.7 mph 13 mph 74% 0 in 617.00 W/m2 unknown
12:09 69.8 °F 60.8 °F 29.5 in East 8.1 mph 13 mph 74% 0 in 642.00 W/m2 unknown
12:14 69.8 °F 60.8 °F 29.5 in East 9.3 mph 11.8 mph 73% 0 in 642.00 W/m2 unknown
12:19 69.8 °F 60.8 °F 29.5 in ESE 8.7 mph 11.8 mph 71% 0 in 643.00 W/m2 unknown
12:24 69.8 °F 60.8 °F 29.5 in East 6.2 mph 9.9 mph 71% 0 in 635.00 W/m2 unknown
12:29 69.8 °F 60.8 °F 29.5 in East 6.8 mph 10.6 mph 71% 0 in 635.00 W/m2 unknown
12:34 69.8 °F 60.8 °F 29.5 in ESE 6.2 mph 10.6 mph 72% 0 in 635.00 W/m2 unknown
12:39 69.8 °F 60.8 °F 29.5 in East 6.2 mph 9.9 mph 71% 0 in 624.00 W/m2 unknown
12:44 71.6 °F 60.8 °F 29.5 in ENE 9.3 mph 14.9 mph 71% 0 in 615.00 W/m2 unknown
12:49 71.6 °F 60.8 °F 29.5 in ENE 8.7 mph 14.9 mph 71% 0 in 617.00 W/m2 unknown
12:54 71.6 °F 60.8 °F 29.5 in East 6.2 mph 11.8 mph 70% 0 in 693.00 W/m2 unknown
12:59 71.6 °F 62.6 °F 29.5 in ESE 6.8 mph 11.8 mph 70% 0 in 752.00 W/m2 unknown
13:04 73.4 °F 62.6 °F 29.5 in East 7.5 mph 14.3 mph 70% 0 in 752.00 W/m2 unknown
13:09 73.4 °F 60.8 °F 29.5 in East 8.7 mph 14.3 mph 68% 0 in 714.00 W/m2 unknown
13:14 71.6 °F 60.8 °F 29.5 in East 8.1 mph 14.3 mph 68% 0 in 714.00 W/m2 unknown
13:19 71.6 °F 60.8 °F 29.5 in ENE 7.5 mph 10.6 mph 68% 0 in 735.00 W/m2 unknown
13:24 73.4 °F 60.8 °F 29.5 in East 7.5 mph 10.6 mph 68% 0 in 754.00 W/m2 unknown
13:29 73.4 °F 60.8 °F 29.5 in ESE 6.8 mph 10.6 mph 67% 0 in 701.00 W/m2 unknown
13:34 73.4 °F 60.8 °F 29.5 in ESE 6.2 mph 8.7 mph 68% 0 in 311.00 W/m2 unknown
13:39 71.6 °F 60.8 °F 29.5 in SE 5 mph 8.1 mph 66% 0 in 278.00 W/m2 unknown
13:44 71.6 °F 60.8 °F 29.5 in ESE 5 mph 8.1 mph 67% 0 in 260.00 W/m2 unknown
13:49 71.6 °F 59 °F 29.5 in ESE 5.6 mph 8.1 mph 67% 0 in 257.00 W/m2 unknown
13:54 71.6 °F 59 °F 29.5 in ESE 5 mph 8.1 mph 66% 0 in 251.00 W/m2 unknown
13:59 71.6 °F 59 °F 29.5 in ESE 5.6 mph 6.8 mph 65% 0 in 345.00 W/m2 unknown
14:04 73.4 °F 59 °F 29.5 in ESE 5 mph 6.8 mph 64% 0 in 591.00 W/m2 unknown
14:09 73.4 °F 59 °F 29.5 in South 3.7 mph 6.2 mph 63% 0 in 865.00 W/m2 unknown
14:14 75.2 °F 59 °F 29.5 in SSE 6.8 mph 14.3 mph 61% 0 in 865.00 W/m2 unknown
14:19 75.2 °F 59 °F 29.5 in South 7.5 mph 14.3 mph 59% 0 in 784.00 W/m2 unknown
14:24 75.2 °F 59 °F 29.5 in SE 6.8 mph 14.3 mph 60% 0 in 487.00 W/m2 unknown
14:29 73.4 °F 59 °F 29.5 in SE 6.2 mph 9.9 mph 61% 0 in 174.00 W/m2 unknown
14:34 73.4 °F 59 °F 29.5 in SSE 6.2 mph 11.8 mph 61% 0 in 151.00 W/m2 unknown
14:39 71.6 °F 59 °F 29.5 in SE 5 mph 11.8 mph 62% 0 in 188.00 W/m2 unknown
14:44 73.4 °F 59 °F 29.5 in SSE 4.3 mph 11.2 mph 61% 0 in 241.00 W/m2 unknown
14:49 73.4 °F 59 °F 29.5 in SE 6.8 mph 11.8 mph 60% 0 in 327.00 W/m2 unknown
14:54 73.4 °F 57.2 °F 29.5 in SE 6.2 mph 11.8 mph 59% 0 in 418.00 W/m2 unknown
14:59 73.4 °F 59 °F 29.4 in South 6.2 mph 9.3 mph 58% 0 in 336.00 W/m2 unknown
15:04 73.4 °F 57.2 °F 29.5 in South 8.7 mph 14.3 mph 57% 0 in 357.00 W/m2 unknown
15:09 73.4 °F 57.2 °F 29.4 in South 9.9 mph 14.3 mph 55% 0 in 346.00 W/m2 unknown
15:14 73.4 °F 57.2 °F 29.4 in SSW 10.6 mph 14.9 mph 54% 0 in 325.00 W/m2 unknown
15:19 73.4 °F 57.2 °F 29.4 in South 8.7 mph 16.2 mph 54% 0 in 309.00 W/m2 unknown
15:24 73.4 °F 55.4 °F 29.4 in SSW 10.6 mph 16.2 mph 53% 0 in 206.00 W/m2 unknown
15:29 73.4 °F 55.4 °F 29.4 in SSW 9.3 mph 16.2 mph 53% 0 in 193.00 W/m2 unknown
15:30 73.4 °F 55.4 °F 29.4 in SSW 7.5 mph 11.8 mph 54% 0 in 209.00 W/m2 unknown
15:39 73.4 °F 55.4 °F 29.4 in South 8.7 mph 13 mph 54% 0 in 475.00 W/m2 unknown
15:44 75.2 °F 55.4 °F 29.4 in South 7.5 mph 13 mph 51% 0 in 320.00 W/m2 unknown
15:49 75.2 °F 55.4 °F 29.4 in South 7.5 mph 13 mph 52% 0 in 466.00 W/m2 unknown
15:54 75.2 °F 57.2 °F 29.4 in SSW 6.8 mph 13 mph 53% 0 in 466.00 W/m2 unknown
15:59 75.2 °F 55.4 °F 29.4 in SSW 8.7 mph 14.3 mph 52% 0 in 557.00 W/m2 unknown
16:04 75.2 °F 55.4 °F 29.4 in South 11.2 mph 17.4 mph 50% 0 in 557.00 W/m2 unknown
16:09 75.2 °F 55.4 °F 29.4 in SW 13.7 mph 18.6 mph 48% 0 in 533.00 W/m2 unknown
16:14 75.2 °F 55.4 °F 29.4 in SSW 13.7 mph 18.6 mph 50% 0 in 541.00 W/m2 unknown
16:19 75.2 °F 55.4 °F 29.4 in SSW 11.8 mph 19.3 mph 49% 0 in 519.00 W/m2 unknown
16:24 75.2 °F 55.4 °F 29.4 in South 9.9 mph 19.9 mph 49% 0 in 466.00 W/m2 unknown
16:29 75.2 °F 55.4 °F 29.4 in SSW 11.8 mph 21.1 mph 50% 0 in 504.00 W/m2 unknown
16:34 75.2 °F 55.4 °F 29.4 in SSW 13 mph 21.1 mph 50% 0 in 504.00 W/m2 unknown
16:39 75.2 °F 53.6 °F 29.5 in South 12.4 mph 21.1 mph 48% 0 in 445.00 W/m2 unknown
16:44 75.2 °F 55.4 °F 29.5 in SSW 11.8 mph 21.1 mph 49% 0 in 466.00 W/m2 unknown
16:49 75.2 °F 55.4 °F 29.5 in South 11.8 mph 21.1 mph 49% 0 in 441.00 W/m2 unknown
16:54 75.2 °F 53.6 °F 29.5 in SSW 14.9 mph 23 mph 46% 0 in 397.00 W/m2 unknown
16:59 75.2 °F 53.6 °F 29.5 in SW 14.3 mph 23 mph 46% 0 in 352.00 W/m2 unknown
17:04 75.2 °F 53.6 °F 29.5 in SW 11.8 mph 16.8 mph 46% 0 in 327.00 W/m2 unknown
17:09 75.2 °F 53.6 °F 29.5 in SSW 11.8 mph 18.6 mph 47% 0 in 309.00 W/m2 unknown
17:14 75.2 °F 51.8 °F 29.5 in SSW 14.9 mph 19.9 mph 46% 0 in 306.00 W/m2 unknown
17:19 75.2 °F 51.8 °F 29.5 in SW 14.3 mph 19.9 mph 48% 0 in 102.00 W/m2 unknown
17:24 73.4 °F 51.8 °F 29.5 in SSW 9.9 mph 14.9 mph 48% 0 in 195.00 W/m2 unknown
17:29 73.4 °F 51.8 °F 29.5 in SSW 9.3 mph 16.2 mph 48% 0 in 190.00 W/m2 unknown
17:34 73.4 °F 53.6 °F 29.5 in SW 9.9 mph 16.2 mph 48% 0 in 137.00 W/m2 unknown
17:39 73.4 °F 51.8 °F 29.5 in SSW 9.3 mph 13 mph 48% 0 in 141.00 W/m2 unknown
17:44 73.4 °F 51.8 °F 29.5 in SSW 8.7 mph 13 mph 49% 0 in 95.00 W/m2 unknown
17:49 73.4 °F 53.6 °F 29.5 in SW 8.1 mph 11.8 mph 50% 0 in 83.00 W/m2 unknown
17:54 73.4 °F 53.6 °F 29.5 in SW 8.1 mph 11.8 mph 51% 0 in 79.00 W/m2 unknown
17:59 73.4 °F 53.6 °F 29.5 in SSW 6.2 mph 9.3 mph 51% 0 in 72.00 W/m2 unknown
18:04 71.6 °F 53.6 °F 29.5 in SSW 6.2 mph 11.2 mph 51% 0 in 51.00 W/m2 unknown
18:09 71.6 °F 53.6 °F 29.5 in SW 6.8 mph 11.2 mph 51% 0 in 37.00 W/m2 unknown
18:14 71.6 °F 53.6 °F 29.5 in SW 6.8 mph 9.3 mph 51% 0 in 32.00 W/m2 unknown
18:19 71.6 °F 53.6 °F 29.5 in WSW 6.2 mph 8.1 mph 53% 0 in 32.00 W/m2 unknown
18:24 71.6 °F 57.2 °F 29.5 in North 6.2 mph 9.3 mph 66% 0 in 30.00 W/m2 unknown
18:29 69.8 °F 57.2 °F 29.5 in NE 6.2 mph 9.3 mph 70% 0 in 25.00 W/m2 unknown
18:34 68 °F 57.2 °F 29.5 in East 4.3 mph 6.8 mph 73% 0 in 23.00 W/m2 unknown
18:39 66.2 °F 57.2 °F 29.5 in NE 5.6 mph 9.3 mph 74% 0 in 19.00 W/m2 unknown
18:44 64.4 °F 57.2 °F 29.5 in North 6.2 mph 9.3 mph 76% 0 in 16.00 W/m2 unknown
18:49 64.4 °F 57.2 °F 29.5 in NNE 5 mph 6.8 mph 77% 0 in 12.00 W/m2 unknown
18:54 64.4 °F 57.2 °F 29.5 in NNE 5 mph 8.1 mph 78% 0 in 7.00 W/m2 unknown
18:59 64.4 °F 57.2 °F 29.5 in NNE 6.2 mph 8.7 mph 79% 0 in 5.00 W/m2 unknown
19:04 64.4 °F 57.2 °F 29.5 in NE 6.8 mph 9.3 mph 80% 0 in 0.00 W/m2 unknown
19:09 62.6 °F 57.2 °F 29.5 in NE 6.2 mph 9.3 mph 80% 0 in 0.00 W/m2 unknown
19:14 62.6 °F 57.2 °F 29.5 in NNE 5 mph 8.7 mph 80% 0 in 0.00 W/m2 unknown
19:19 62.6 °F 57.2 °F 29.5 in WSW 3.1 mph 3.7 mph 81% 0 in 0.00 W/m2 unknown
19:24 62.6 °F 57.2 °F 29.5 in NNE 3.7 mph 6.8 mph 80% 0 in 0.00 W/m2 unknown
19:29 62.6 °F 57.2 °F 29.5 in NE 4.3 mph 6.8 mph 81% 0 in 0.00 W/m2 unknown
19:33 62.6 °F 55.4 °F 29.5 in NE 5 mph 9.9 mph 80% 0 in 0.00 W/m2 unknown
19:39 62.6 °F 55.4 °F 29.5 in NE 5.6 mph 9.3 mph 80% 0 in 0.00 W/m2 unknown
19:44 62.6 °F 55.4 °F 29.5 in ENE 5 mph 9.3 mph 80% 0 in 0.00 W/m2 unknown
19:49 62.6 °F 55.4 °F 29.5 in ENE 3.7 mph 8.7 mph 81% 0 in 0.00 W/m2 unknown
19:54 62.6 °F 55.4 °F 29.5 in East 3.7 mph 6.8 mph 81% 0 in 0.00 W/m2 unknown
19:59 62.6 °F 55.4 °F 29.5 in East 3.1 mph 6.2 mph 81% 0 in 0.00 W/m2 unknown
20:04 60.8 °F 55.4 °F 29.5 in ENE 3.1 mph 5 mph 81% 0 in 0.00 W/m2 unknown
20:09 60.8 °F 55.4 °F 29.5 in NE 3.1 mph 3.7 mph 81% 0 in 0.00 W/m2 unknown
20:14 60.8 °F 55.4 °F 29.5 in NNE 3.1 mph 3.7 mph 82% 0 in 0.00 W/m2 unknown
20:19 60.8 °F 55.4 °F 29.5 in NE 3.1 mph 3.7 mph 82% 0 in 0.00 W/m2 unknown
20:24 60.8 °F 55.4 °F 29.5 in NE 3.1 mph 3.7 mph 82% 0 in 0.00 W/m2 unknown
20:29 60.8 °F 55.4 °F 29.5 in NE 3.7 mph 5 mph 82% 0 in 0.00 W/m2 unknown
20:34 60.8 °F 55.4 °F 29.5 in NNE 3.7 mph 5 mph 82% 0 in 0.00 W/m2 unknown
20:39 60.8 °F 55.4 °F 29.5 in North 3.7 mph 5 mph 82% 0 in 0.00 W/m2 unknown
20:44 60.8 °F 55.4 °F 29.5 in North 3.7 mph 5 mph 82% 0 in 0.00 W/m2 unknown
20:49 60.8 °F 55.4 °F 29.5 in NNE 1.9 mph 3.7 mph 82% 0 in 0.00 W/m2 unknown
20:54 60.8 °F 55.4 °F 29.5 in ENE 3.1 mph 3.7 mph 83% 0 in 0.00 W/m2 unknown
20:59 60.8 °F 55.4 °F 29.5 in ENE 3.7 mph 5 mph 83% 0 in 0.00 W/m2 unknown
21:04 60.8 °F 55.4 °F 29.5 in ENE 3.1 mph 5 mph 83% 0 in 0.00 W/m2 unknown
21:09 60.8 °F 55.4 °F 29.5 in NE 1.9 mph 5 mph 83% 0 in 0.00 W/m2 unknown
21:14 60.8 °F 55.4 °F 29.5 in NE 1.2 mph 1.9 mph 83% 0 in 0.00 W/m2 unknown
21:19 60.8 °F 55.4 °F 29.5 in ENE 0.6 mph 1.2 mph 84% 0 in 0.00 W/m2 unknown
21:24 60.8 °F 55.4 °F 29.5 in ENE 1.2 mph 2.5 mph 84% 0 in 0.00 W/m2 unknown
21:29 59 °F 55.4 °F 29.5 in ENE 1.2 mph 2.5 mph 85% 0 in 0.00 W/m2 unknown
21:34 59 °F 55.4 °F 29.5 in ENE 1.9 mph 2.5 mph 86% 0 in 0.00 W/m2 unknown
21:39 59 °F 55.4 °F 29.5 in ENE 2.5 mph 3.7 mph 86% 0 in 0.00 W/m2 unknown
21:44 59 °F 55.4 °F 29.5 in ENE 3.1 mph 3.7 mph 87% 0 in 0.00 W/m2 unknown
21:49 59 °F 55.4 °F 29.5 in ENE 2.5 mph 3.7 mph 87% 0 in 0.00 W/m2 unknown
21:54 59 °F 55.4 °F 29.5 in NE 1.9 mph 3.7 mph 86% 0 in 0.00 W/m2 unknown
21:59 59 °F 55.4 °F 29.5 in East 1.9 mph 3.1 mph 86% 0 in 0.00 W/m2 unknown
22:04 59 °F 55.4 °F 29.5 in East 3.1 mph 5 mph 86% 0 in 0.00 W/m2 unknown
22:09 59 °F 55.4 °F 29.5 in East 3.1 mph 5 mph 86% 0 in 0.00 W/m2 unknown
22:14 59 °F 55.4 °F 29.5 in East 1.9 mph 3.7 mph 86% 0 in 0.00 W/m2 unknown
22:19 59 °F 55.4 °F 29.5 in ENE 1.2 mph 3.7 mph 86% 0 in 0.00 W/m2 unknown
22:24 59 °F 55.4 °F 29.5 in NE 1.9 mph 3.7 mph 87% 0 in 0.00 W/m2 unknown
22:29 59 °F 55.4 °F 29.5 in NE 2.5 mph 3.7 mph 87% 0 in 0.00 W/m2 unknown
22:34 59 °F 55.4 °F 29.5 in ENE 2.5 mph 3.7 mph 87% 0 in 0.00 W/m2 unknown
22:39 59 °F 55.4 °F 29.5 in NE 2.5 mph 3.7 mph 87% 0 in 0.00 W/m2 unknown
22:44 59 °F 55.4 °F 29.5 in NE 1.2 mph 3.1 mph 87% 0 in 0.00 W/m2 unknown
22:49 59 °F 55.4 °F 29.5 in NE 1.2 mph 2.5 mph 87% 0 in 0.00 W/m2 unknown
22:54 59 °F 55.4 °F 29.5 in NE 1.2 mph 2.5 mph 87% 0 in 0.00 W/m2 unknown
22:59 59 °F 55.4 °F 29.5 in NE 1.2 mph 2.5 mph 87% 0 in 0.00 W/m2 unknown
23:04 59 °F 55.4 °F 29.6 in NNW 3.7 mph 9.3 mph 87% 0 in 0.00 W/m2 unknown
23:09 59 °F 55.4 °F 29.6 in North 5 mph 9.3 mph 87% 0 in 0.00 W/m2 unknown
23:14 59 °F 55.4 °F 29.6 in NNW 5 mph 8.7 mph 87% 0 in 0.00 W/m2 unknown
23:19 59 °F 55.4 °F 29.6 in North 6.2 mph 9.3 mph 87% 0 in 0.00 W/m2 unknown
23:24 59 °F 55.4 °F 29.6 in NNE 6.2 mph 9.3 mph 86% 0 in 0.00 W/m2 unknown
23:29 59 °F 55.4 °F 29.6 in North 5 mph 8.7 mph 86% 0 in 0.00 W/m2 unknown
23:34 59 °F 55.4 °F 29.6 in NNE 5.6 mph 8.1 mph 86% 0 in 0.00 W/m2 unknown
23:39 59 °F 55.4 °F 29.6 in NNE 5.6 mph 8.1 mph 86% 0 in 0.00 W/m2 unknown
23:44 59 °F 55.4 °F 29.6 in NNE 6.2 mph 10.6 mph 86% 0 in 0.00 W/m2 unknown
23:49 59 °F 55.4 °F 29.6 in NNE 6.2 mph 10.6 mph 86% 0 in 0.00 W/m2 unknown
23:54 59 °F 55.4 °F 29.6 in NNE 6.2 mph 9.9 mph 85% 0 in 0.00 W/m2 unknown
23:59 59 °F 55.4 °F 29.6 in NNE 5 mph 6.8 mph 84% 0 in 0.00 W/m2 unknown
Stazione Meteorologica MeteoMincio Rivalta s/M (MN)
Con i complimenti di Weather Underground - 4 mb



METEO PILLOLE
Il ciclone tropicale di maggiore durata
Oceano Pacifico
Il sistema di tempeste battezzato John percorre in lungo e in largo il Pacifico per ben 31 giorni, tra l'agosto e il settembre 1994.
Share

Non seguire questo link o sarai bannato dal sito!